Regional Weather Roundup
Issued by NWS

Home | Current Version | Previous Version | Text Only | Print | Product List | Glossary On
Versions: 1 2 3 4 5 6 7 8 9 10 11 12 13 14 15 16 17 18 19 20 21 22 23 24 25 26 27 28 29 30 31 32 33 34 35 36 37 38 39 40 41 42 43 44 45 46 47 48 49 50
000
ASUS42 KFFC 180710
RWRGA
WEATHER ROUNDUP FOR GEORGIA
NATIONAL WEATHER SERVICE PEACHTREE CITY GA
200 AM EST SUN FEB 18 2018

NOTE: "FAIR" INDICATES FEW OR NO CLOUDS BELOW 12,000 FEET WITH NO
SIGNIFICANT WEATHER AND/OR OBSTRUCTIONS TO VISIBILITY.

* = USE WITH CAUTION. THE STATIONS MARKED WITH AN ASTERISK MAY NOT
REPORT WEATHER SUCH AS PRECIPITATION, FOG, OR THUNDER AND ARE NOT
QUALITY CONTROLLED BY NWS.

THE REMARK "TC" DENOTES TEMPERATURE READING IN DEGREES CELSIUS.

GAZ001>058-180800-
NORTH GEORGIA

CITY           SKY/WX    TMP DP  RH WIND       PRES   REMARKS
ATLANTA        LGT RAIN  58  56  93 NW13      30.15R
ATHENS         CLOUDY    59  57  93 VRB6      30.11S
CHAMBLEE       CLOUDY    55  51  86 NW12      30.15R
PEACHTREE CITY CLOUDY    61  58  90 NW9       30.15R
ROME           CLOUDY    52  49  89 N8        30.19S
WEST ATLANTA   CLOUDY    57  54  89 NW13      30.16R
GAINESVILLE    CLOUDY    56  51  84 NW12      30.14R
CARTERSVILLE   CLOUDY    52  50  93 N7        30.19S


CITY           SKY/WX    TMP DP  RH WIND       PRES   REMARKS
DALTON*        MOCLDY    48  46  93 N8        30.21R
LAWRENCEVILLE* CLOUDY    57  52  82 W7          N/A
MARIETTA       MOCLDY    53  50  87 W8        30.15R
KENNESAW*      CLOUDY    52  50  93 VRB6      30.17R
CANTON*        MOCLDY    52  52 100 W10       30.16S
BLAIRSVILLE*   CLOUDY    47  44  91 NW3       30.17S
$$

GAZ059>098-102>109-180800-
CENTRAL GEORGIA

CITY           SKY/WX    TMP DP  RH WIND       PRES   REMARKS
AUGUSTA-BUSH   FAIR      57  55  93 N13       30.10R
AUGUSTA-DANIEL MOCLDY    56  53  90 N7        30.11R
COLUMBUS       CLOUDY    68  60  75 N3        30.13S
MACON          CLOUDY    67  58  72 W5        30.11S
ROBINS AFB     MOCLDY    68  59  72 W8        30.11R


CITY           SKY/WX    TMP DP  RH WIND       PRES   REMARKS
LAGRANGE*      DRIZZLE   63  63  99 N6        30.15R
SYLVANIA*      FAIR      65  64  96 SW5       30.12S
MILLEDGEVILLE* FAIR      63  55  77 NW3       30.11R
$$

GAZ099>101-110>166-180800-
SOUTH GEORGIA

CITY           SKY/WX    TMP DP  RH WIND       PRES   REMARKS
SAVANNAH       FAIR      65  60  84 SW8       30.13S
VALDOSTA       CLOUDY    65  63  93 VRB6      30.16S
ALMA           FAIR      61  58  90 S3        30.15R
ST SIMONS      FAIR      64  62  93 SW8       30.15S
FT STEWART     FAIR      65  59  81 SW6       30.12S
ALBANY         FAIR      62  61  96 S5        30.16S
HUNTER AFB     FAIR      65  62  90 SW7       30.11S
MOODY AFB      MOCLDY    65  65 100 W5        30.15S
BRUNSWICK      FAIR      64  61  88 SW7       30.16S


CITY           SKY/WX    TMP DP  RH WIND       PRES   REMARKS
BAINBRIDGE*    FAIR      64  64 100 CALM      30.16S
MOULTRIE*      CLOUDY    63  63 100 CALM      30.16S FOG
VIDALIA*       FAIR      63  63 100 SW6       30.14R
WAYCROSS*      CLOUDY    64  61  90 SW7       30.16S
DOUGLAS*       FAIR      61  59  94 SW5       30.17S
$$



USA.gov is the U.S. government's official web portal to all federal, state and local government web resources and services.